Stations météo

réclame
Mon MeteoGroup
Catania/Fontanarossa, Italie (16460): Température de l'air & dewpoint: 08.12.2018 11:00:00 - 14.12.2018 11:00:00 (CET)Catania/Fontanarossa, Italie (16460): Vitesse du vent: 08.12.2018 11:00:00 - 14.12.2018 11:00:00 (CET)Catania/Fontanarossa, Italie (16460): Direction du vent: 08.12.2018 11:00:00 - 14.12.2018 11:00:00 (CET)Catania/Fontanarossa, Italie (16460): reduced air pressure: 08.12.2018 11:00:00 - 14.12.2018 11:00:00 (CET)Catania/Fontanarossa, Italie (16460): visibility: 08.12.2018 11:00:00 - 14.12.2018 11:00:00 (CET)Catania/Fontanarossa, Italie (16460): Quantités de précipitations: 08.12.2018 11:00:00 - 14.12.2018 11:00:00 (CET)
Date & Time tt [°C] td [°C] ff [km/h] ff [knt] dd ppp [hPa] vv [km] rr [mm]
14.12.2018 11:00:00 15,0 12,0 8 4 SW - 8 -
14.12.2018 10:00:00 12,7 11,1 8 4 W 1011,4 8 0,0
14.12.2018 09:00:00 11,0 10,0 5 3 W - 10 -
14.12.2018 08:00:00 8,0 8,0 8 4 W - 6 -
14.12.2018 07:00:00 8,4 8,0 9 5 SW 1011,4 7 -
14.12.2018 06:00:00 8,0 8,0 8 4 S - 10 -
14.12.2018 05:00:00 9,0 9,0 13 7 SW - 10 -
14.12.2018 04:00:00 8,8 8,3 11 6 WSW 1011,6 10 0,0
14.12.2018 03:00:00 10,0 9,0 9 5 WSW - 10 -
14.12.2018 02:00:00 - - - - - - - -
14.12.2018 01:00:00 10,8 9,7 13 7 WSW 1012,6 10 -
14.12.2018 00:00:00 12,0 10,0 11 6 W - 10 -
13.12.2018 23:00:00 12,0 11,0 11 6 W - 10 -
13.12.2018 22:00:00 13,1 11,2 5 3 WSW 1013,4 10 0,0
13.12.2018 21:00:00 14,0 12,0 15 8 W - 10 -
13.12.2018 20:00:00 14,0 11,0 4 2 - - 10 -
13.12.2018 19:00:00 14,6 11,7 18 10 W 1013,0 10 -
13.12.2018 18:00:00 15,0 12,0 15 8 W - 10 -
13.12.2018 17:00:00 16,0 12,0 18 10 WSW - 10 -
13.12.2018 16:00:00 17,3 11,6 18 10 WSW 1012,5 10 0,0
13.12.2018 15:00:00 17,0 12,0 9 5 SW - 10 -
13.12.2018 14:00:00 19,0 12,0 11 6 WSW - 10 -
13.12.2018 13:00:00 17,4 11,2 16 9 W 1013,4 10 -
13.12.2018 12:00:00 17,0 12,0 15 8 W - 10 -
13.12.2018 11:00:00 16,0 11,0 21 11 WSW - 10 -
13.12.2018 10:00:00 15,1 11,1 13 7 W 1014,9 10 0,0
13.12.2018 09:00:00 12,0 10,0 13 7 W - 10 -
13.12.2018 08:00:00 12,0 10,0 11 6 W - 10 -
13.12.2018 07:00:00 10,9 9,5 13 7 W 1014,9 10 -
13.12.2018 06:00:00 11,0 9,0 11 6 W - 10 -
13.12.2018 05:00:00 10,0 9,0 13 7 WSW - 10 -
13.12.2018 04:00:00 11,2 8,9 13 7 W 1015,9 10 0,0
13.12.2018 03:00:00 11,0 9,0 9 5 WSW - 10 -
13.12.2018 02:00:00 11,0 10,0 13 7 W - 10 -
13.12.2018 01:00:00 10,8 9,6 13 7 W 1016,4 10 -
13.12.2018 00:00:00 10,0 10,0 13 7 W - 10 -
12.12.2018 23:00:00 10,0 9,0 11 6 W - 10 -
12.12.2018 22:00:00 10,6 10,1 9 5 SW 1017,5 10 0,0
12.12.2018 21:00:00 12,0 11,0 9 5 W - 10 -
12.12.2018 20:00:00 12,0 11,0 8 4 WSW - 10 -
12.12.2018 19:00:00 12,1 11,0 5 3 W 1017,7 10 -
12.12.2018 18:00:00 13,0 11,0 8 4 W - 10 -
12.12.2018 17:00:00 13,0 10,0 9 5 W - 10 -
12.12.2018 16:00:00 14,1 10,0 11 6 WSW 1018,0 10 0,0
12.12.2018 15:00:00 14,0 9,0 4 2 WSW - 10 -
12.12.2018 14:00:00 15,0 6,0 5 3 SW - 10 -
12.12.2018 13:00:00 14,5 6,4 8 4 SW 1019,0 10 -
12.12.2018 12:00:00 16,0 7,0 8 4 SW - 10 -
12.12.2018 11:00:00 13,0 6,0 16 9 WSW - 10 -
12.12.2018 10:00:00 12,5 5,5 13 7 WSW 1020,3 10 0,0
12.12.2018 09:00:00 8,0 5,0 4 2 - - 10 -
12.12.2018 08:00:00 6,0 4,0 13 7 SW - 10 -
12.12.2018 07:00:00 5,2 3,6 5 3 SW 1019,2 10 -
12.12.2018 06:00:00 5,0 -66,0 9 5 WSW - 10 -
12.12.2018 05:00:00 5,0 -61,0 8 4 WSW - 10 -
12.12.2018 04:00:00 6,3 -45,6 9 5 WSW 1019,0 10 0,0
12.12.2018 03:00:00 7,0 -23,0 13 7 WSW - 10 -
12.12.2018 02:00:00 8,0 5,0 15 8 W - 10 -
12.12.2018 01:00:00 8,3 4,9 11 6 W 1018,8 10 -
12.12.2018 00:00:00 12,0 4,0 13 7 WNW - 10 -
11.12.2018 23:00:00 12,0 5,0 13 7 WNW - 10 -
11.12.2018 22:00:00 11,1 5,5 9 5 W 1019,0 10 0,0
11.12.2018 21:00:00 10,0 6,0 13 7 WSW - 10 -
11.12.2018 20:00:00 11,0 5,0 15 8 W - 10 -
11.12.2018 19:00:00 10,5 5,7 11 6 W 1018,0 10 -
11.12.2018 18:00:00 10,0 5,0 13 7 W - 10 -
11.12.2018 17:00:00 13,0 4,0 18 10 W - 10 -
11.12.2018 16:00:00 14,6 5,4 15 8 WNW 1016,9 10 0,0
11.12.2018 15:00:00 16,0 3,0 11 6 NW - 10 -
11.12.2018 14:00:00 16,0 4,0 21 11 WNW - 10 -
11.12.2018 13:00:00 16,4 4,9 24 13 W 1016,1 10 -
11.12.2018 12:00:00 15,0 4,0 28 15 W - 10 -
11.12.2018 11:00:00 16,0 7,0 21 11 W - 10 -
11.12.2018 10:00:00 14,3 7,0 24 13 WSW 1017,4 10 0,0
11.12.2018 09:00:00 11,0 7,0 13 7 W - 10 -
11.12.2018 08:00:00 9,0 7,0 13 7 W - 10 -
11.12.2018 07:00:00 7,8 5,7 15 8 W 1016,2 10 -
11.12.2018 06:00:00 9,0 6,0 15 8 W - 10 -
11.12.2018 05:00:00 9,0 6,0 16 9 WSW - 10 -
11.12.2018 04:00:00 8,1 5,1 15 8 W 1015,1 10 0,0
11.12.2018 03:00:00 10,0 5,0 16 9 SW - 8 -
11.12.2018 02:00:00 11,0 7,0 11 6 SW - 8 -
11.12.2018 01:00:00 9,8 7,1 4 2 - 1015,0 10 -
11.12.2018 00:00:00 12,0 7,0 5 3 ENE - 10 -
10.12.2018 23:00:00 10,0 6,0 5 3 E - 10 -
10.12.2018 22:00:00 10,7 7,3 11 6 W 1014,8 10 0,0
10.12.2018 21:00:00 11,0 7,0 2 1 - - 10 -
10.12.2018 20:00:00 12,0 7,0 5 3 SW - 10 -
10.12.2018 19:00:00 12,9 7,2 16 9 W 1014,4 10 -
10.12.2018 18:00:00 14,0 7,0 21 11 WNW - 10 -
10.12.2018 17:00:00 16,0 5,0 18 10 WNW - 10 -
10.12.2018 16:00:00 17,6 4,7 28 15 WNW 1013,8 10 0,0
10.12.2018 15:00:00 19,0 6,0 29 16 W - 10 -
10.12.2018 14:00:00 19,0 3,0 28 15 WNW - 10 -
10.12.2018 13:00:00 19,4 4,5 26 14 W 1014,1 10 -
10.12.2018 12:00:00 19,0 5,0 31 17 W - 10 -
10.12.2018 11:00:00 19,0 5,0 21 11 WNW - 10 -
10.12.2018 10:00:00 16,8 8,9 15 8 SW 1015,8 10 0,0
10.12.2018 09:00:00 15,0 8,0 4 2 - - 10 -
10.12.2018 08:00:00 13,0 7,0 24 13 W - 10 -
10.12.2018 07:00:00 13,0 6,6 26 14 WSW 1014,2 10 -
10.12.2018 06:00:00 15,0 8,0 28 15 W - 10 -
10.12.2018 05:00:00 14,0 9,0 26 14 W - 10 -
10.12.2018 04:00:00 14,8 8,3 34 18 W 1012,6 10 0,0
10.12.2018 03:00:00 16,0 9,0 39 21 W - 10 -
10.12.2018 02:00:00 15,0 9,0 41 22 W - 10 -
10.12.2018 01:00:00 14,6 8,8 41 22 W 1012,3 10 -
10.12.2018 00:00:00 14,0 9,0 34 18 W - 10 -
09.12.2018 23:00:00 15,0 9,0 29 16 W - 10 -
09.12.2018 22:00:00 14,4 8,6 21 11 W 1014,8 10 0,0
09.12.2018 21:00:00 15,0 9,0 26 14 W - 10 -
09.12.2018 20:00:00 15,0 9,0 21 11 W - 10 -
09.12.2018 19:00:00 14,6 9,5 22 12 WSW 1015,2 10 -
09.12.2018 18:00:00 16,0 9,0 29 16 WSW - 10 -
09.12.2018 17:00:00 17,0 8,0 29 16 W - 10 -
09.12.2018 16:00:00 18,4 8,6 21 11 W 1015,3 10 0,0
09.12.2018 15:00:00 20,0 8,0 21 11 W - 10 -
09.12.2018 14:00:00 19,0 8,0 29 16 W - 10 -
09.12.2018 13:00:00 18,3 8,2 41 22 WSW 1016,1 10 -
09.12.2018 12:00:00 18,0 9,0 26 14 SW - 10 -
09.12.2018 11:00:00 17,0 8,0 22 12 WSW - 10 -
09.12.2018 10:00:00 16,2 7,8 21 11 W 1019,2 10 0,0
09.12.2018 09:00:00 15,0 7,0 18 10 WNW - 10 -
09.12.2018 08:00:00 11,0 7,0 13 7 W - 10 -
09.12.2018 07:00:00 9,4 5,7 8 4 WNW 1018,3 10 -
09.12.2018 06:00:00 11,0 6,0 15 8 SW - 10 -
09.12.2018 05:00:00 11,0 7,0 15 8 W - 10 -
09.12.2018 04:00:00 10,0 6,3 11 6 WSW 1017,2 10 0,0
09.12.2018 03:00:00 12,0 7,0 21 11 W - 10 -
09.12.2018 02:00:00 13,0 6,0 21 11 W - 10 -
09.12.2018 01:00:00 11,1 6,5 9 5 SSW 1016,9 10 -
09.12.2018 00:00:00 13,0 6,0 22 12 W - 10 -
08.12.2018 23:00:00 14,0 6,0 37 20 W - 10 -
08.12.2018 22:00:00 14,4 6,0 22 12 WSW 1016,7 10 0,0
08.12.2018 21:00:00 15,0 5,0 31 17 WNW - 10 -
08.12.2018 20:00:00 14,0 8,0 28 15 WSW - 10 -
08.12.2018 19:00:00 15,8 7,7 29 16 WNW 1015,8 10 -
08.12.2018 18:00:00 17,0 7,0 28 15 W - 10 -
08.12.2018 17:00:00 18,0 9,0 18 10 WNW - 10 -
08.12.2018 16:00:00 18,3 10,2 16 9 W 1014,8 10 0,0
08.12.2018 15:00:00 20,0 10,0 29 16 W - 10 -
08.12.2018 14:00:00 19,0 10,0 35 19 W - 10 -
08.12.2018 13:00:00 19,6 9,6 42 23 W 1015,1 10 -
08.12.2018 12:00:00 19,0 10,0 34 18 W - 10 -
08.12.2018 11:00:00 17,0 10,0 31 17 W - 10 -

tt = Température de l'air
td = dewpoint
ff = Vitesse du vent
dd = Direction du vent
ppp = reduced air pressure
vv = visibility
rr = Quantités de précipitations

stations d'obs. à proximité